Location: Champs
(48.8539°N, 2.6040°E)
Time: 03:59:38
(UTC+00:00)

Cosmos 1934 Rocket - Pass Details

Date: 26 October 2021
Orbit: 938 x 999 km, 83.0° (Epoch: 04 December)

Event Time Altitude Azimuth Distance (km) Brightness Sun altitude
Rises 04:39:36 0° 351° (N) 3,621 6.9 -18.2°
Reaches altitude 10° 04:42:06 10° 352° (N) 2,678 6.2 -17.8°
Maximum altitude 04:48:14 82° 80° (E) 969 4.0 -16.8°
Drops below altitude 10° 04:54:24 10° 169° (S) 2,695 6.5 -15.8°
Sets 04:56:55 0° 170° (S) 3,647 7.1 -15.4°
